Find VanZyl-2

NORAD ID: 64573 Int'l Des: 2025-135 Owner: HYDRO Country: L operational
LEOCIRCULARRETROGRADESSO

Live-Position

3D-Globus wird geladen...

Über VanZyl-2

Beschreibung wird geladen...

Nächste Überflüge

Passes for default location (London). Set your location on the main map for personalized predictions.

Höhenverlauf

Loading altitude history...

Zweizeiliger Elementsatz

1 64573U 25135AX 26106.90829704 .00001070 00000-0 95253-4 0 9991
2 64573 97.7037 221.7399 0003082 146.7424 213.3992 14.98133730 44741
Epoch: 16. Apr. 2026 • Age: 20 hours

Aktueller Status

Höhe 575.2 km
Geschwindigkeit 7.58 km/s
Subsatellitenpunkt 34.78°N, 63.14°W
Startdatum 23. Juni 2025
Alter 0.8 years
Typ other

Technische Details

Klassifizierung Payload
Masse 130.00 kg
Trockenmasse 130.00 kg
Gesamtmasse 130.00 kg
Länge 1.20 m
Durchmesser 0.80 m
Spannweite 4.90 m
Form Box+ 2 pan
Hersteller MUON
Bus-Typ Muon
Phasenstatus In Orbit
Besitzer/Staat HYDRO/L

Most Searched